Flag Weather past 2 weeks in Foochow, Fujian, China

Now
66 °F

Passing clouds.


Feels Like: 66 °F
Forecast: 57 / 74 °F
Wind: 17 mph from Northeast

Location: Fuzhou Airport

Current Time: Nov 27, 2014 at 12:16:59 AM

Latest Report: Nov 26, 2014 at 10:00 PM


Visibility: N/A

Pressure: 30.09 "Hg

Humidity: 68%

Dew point: 55 °F

Location of FoochowLocation

Historic Weather in Foochow — Graph

°F

Foochow temperature yesterday

Maximum temperature yesterday: 68 °F (at 10:00 AM)
Minimum temperature yesterday: 64 °F (at 12:00 AM)
Average temperature yesterday: 66 °F

Past Weeks' High & Low Weather Summary

 TemperatureHumidityPressure
High79 °F (Nov 24, 11:00 AM)94% (Nov 12, 5:00 AM)30.33 "Hg (Nov 12, 5:00 AM)
Low57 °F (Nov 18, 6:00 AM)49% (Nov 17, 2:00 PM)29.92 "Hg (Nov 24, 3:00 PM)
Average66 °F72%30.13 "Hg
* Reported Nov 11 10:00 PM — Nov 26 10:00 PM, Foochow, Weather by CustomWeather, © 2014

Note: Actual official high and low records may vary slightly from our data, if they occured in-between our weather recording intervals... More about our weather records

Advertising

Foochow weather history for previous 24 hours

 ConditionsComfort  
Time TempWeatherWind HumidityBarometerVisibility
10:00 PM
Nov 26
66 °FPassing clouds.17 mph68%30.09 "HgN/A
9:00 PM66 °FPassing clouds.17 mph73%30.09 "HgN/A
8:00 PM66 °FPartly cloudy.13 mph73%30.07 "HgN/A
7:00 PM66 °FOvercast.10 mph73%30.07 "HgN/A
6:00 PM66 °FMostly cloudy.15 mph73%30.04 "HgN/A
5:00 PM66 °FOvercast.15 mph73%30.04 "HgN/A
4:00 PM68 °FBroken clouds.15 mph69%30.01 "HgN/A
3:00 PM68 °FBroken clouds.15 mph69%30.01 "HgN/A
2:00 PM68 °FBroken clouds.13 mph73%30.01 "HgN/A
1:00 PM68 °FMostly cloudy.13 mph69%30.04 "HgN/A
12:00 PM68 °FMostly cloudy.15 mph73%30.04 "HgN/A
11:00 AM68 °FBroken clouds.15 mph73%30.07 "HgN/A
10:00 AM68 °FMostly cloudy.17 mph73%30.07 "HgN/A
9:00 AM66 °FMostly cloudy.15 mph78%30.07 "HgN/A
8:00 AM66 °FOvercast.15 mph78%30.04 "HgN/A
7:00 AM66 °FOvercast.10 mph78%30.04 "HgN/A
6:00 AM66 °FMostly cloudy.10 mph83%30.01 "Hg6 mi
5:00 AM64 °FMostly cloudy.8 mph88%29.98 "Hg4 mi
4:00 AM66 °FLow clouds.13 mph83%29.98 "Hg5 mi
3:00 AM64 °FLow clouds.6 mph88%29.98 "Hg4 mi
2:00 AM64 °FLow clouds.8 mph88%29.98 "Hg5 mi
1:00 AM64 °FFog.8 mph94%29.98 "Hg3 mi
12:00 AM64 °FFog.6 mph88%29.98 "Hg3 mi
Weather by CustomWeather, © 2014

See weather overviewHow to use our weather pages